Regional Weather Roundup
Issued by NWS

Home | Current Version | Previous Version | Graphics & Text | Print | Product List | Glossary Off
Versions: 1 2 3 4 5 6 7 8 9 10 11 12 13 14 15 16 17 18 19 20 21 22 23 24 25 26 27

000
ASUS45 KBOU 272207
RWRCO

WEATHER ROUNDUP FOR COLORADO
NATIONAL WEATHER SERVICE DENVER/BOULDER CO
400 PM MDT WED JUL 27 2016

NOTE: "FAIR" INDICATES FEW OR NO CLOUDS BELOW 12000 FEET WITH NO
SIGNIFICANT WEATHER AND/OR OBSTRUCTIONS TO VISIBILITY.

COZ001>005-013-030-031-272300-
...NORTHWEST COLORADO...

CITY           SKY/WX    TMP DP  RH WIND       PRES   REMARKS
CRAIG          FAIR      94  19   6 W7        30.21F
HAYDEN         FAIR      90  27  10 W16G23    30.24F
MEEKER         FAIR      94  24   8 W13       30.22F
MOUNT WERNER   NOT AVBL
STEAMBOAT SPGS FAIR      87  28  11 SW8G22    30.26F
WALDEN         FAIR      81  25  12 NW16      30.38F
$$

COZ006>008-011-272300-
...WEST CENTRAL VALLEYS...

CITY           SKY/WX    TMP DP  RH WIND       PRES   REMARKS
GRAND JUNCTION FAIR      99  35  10 W13       30.08F
MONTROSE       FAIR      94  33  11 N10       30.19F
EAGLE          SUNNY     90  30  12 SW14G20   30.24F
RIFLE          FAIR      96  34  11 S8        30.13F
DELTA          NOT AVBL
NUCLA          NOT AVBL
$$

COZ017>023-064>068-272300-
...SOUTHWEST COLORADO...

CITY           SKY/WX    TMP DP  RH WIND       PRES   REMARKS
DURANGO        FAIR      93  33  12 W7G20     30.20F
CORTEZ         FAIR      97  32  10 N16G24    30.17F
PAGOSA SPRINGS FAIR      89  15   6 NW9       30.30F
TELLURIDE      FAIR      80  28  15 CALM      30.50F
WOLF CREEK PAS FAIR      63  25  23 NE20G25   30.73F
$$

COZ009-010-012-014-032>034-037-058>063-272300-
...CENTRAL COLORADO...

CITY           SKY/WX    TMP DP  RH WIND       PRES   REMARKS
ASPEN          FAIR      85  25  11 NW7G17    30.35F
BUENA VISTA    FAIR      88  15   7 NW12G22   30.33F
COPPER MTN     PTSUNNY   68  23  18 NW12G23   30.74S
BERTHOUD PASS  FAIR      57  43  58 NW21      30.75F
COTTONWOOD PAS FAIR      79   5   6 CALM      30.51F
GUNNISON       FAIR      84  28  13 NW12G17   30.36F
KREMMLING      FAIR      90  14   6 N14G22    30.32F
LEADVILLE      FAIR      74  20  13 N10G24    30.53S
MONARCH PASS   FAIR      70  12  11 MISG      30.82S
SALIDA         FAIR      91  20   7 W7        30.35F
SUNLIGHT       FAIR      73  34  23 MISG      30.66F
WILKERSON PASS PTSUNNY   72  18  13 N6        30.67F
$$

COZ069>075-272300-
...SAN LUIS VALLEY/SANGRE DE CRISTO MOUNTAINS...

CITY           SKY/WX    TMP DP  RH WIND       PRES   REMARKS
ALAMOSA        FAIR      88  30  12 NW8G21    30.29F
LA VETA PASS   FAIR      75  32  20 NE10G24   30.54F
SAGUACHE       FAIR      82  34  17 S9        30.32F
$$

COZ035-036-038>040-272300-
...NORTHERN COLORADO FRONT RANGE...

CITY           SKY/WX    TMP DP  RH WIND       PRES   REMARKS
DENVER INTL AP FAIR      91  48  22 VRB6      30.14F
DMNS CITY PARK   N/A     91  46  21 S1G7      30.13F
AURORA         MOSUNNY   91  45  20 E7        30.16F
FRONT RANGE AP MOSUNNY   91  43  18 MISG      30.16F
ERIE MUNI ARPT FAIR      90  46  22 S5        30.12F
BOULDER MUN AP FAIR      90  52  27 SE3       30.14F
CENTENNIAL     FAIR      90  39  16 NE8       30.17F
BROOMFIELD     MOSUNNY   88  45  22 CALM      30.17F
LONGMONT       NOT AVBL
$$

COZ041-046-047-076>085-087-088-272300-
...PIKES PEAK/PALMER DIVIDE AND SOUTHERN FOOTHILLS...

CITY           SKY/WX    TMP DP  RH WIND       PRES   REMARKS
COLO. SPRINGS  FAIR      90  38  16 E12G20    30.21F
A. F. ACADEMY  FAIR      88  35  15 SE12      30.22F
SCHRIEVER AFB  NOT AVBL
ELLICOTT         N/A      1  32 100 S10       30.20F WCI -15
FALCON         FAIR      88  34  15 E6        30.29
FORT CARSON    FAIR      92  33  12 E9        30.18F
LIMON          FAIR      94  34  12 N9        30.14F
MONUMENT HILL  FAIR      84  36  17 N6        30.30F
TRINIDAD       NOT AVBL
$$

COZ042>045-048>051-090-091-272300-
...NORTHEAST COLORADO...

CITY           SKY/WX    TMP DP  RH WIND       PRES   REMARKS
GREELEY ARPT   FAIR      91  55  29 SE7       30.11F
AKRON          FAIR      86  62  44 E10       30.11F
BURLINGTON     FAIR      89  55  31 SE13G20   30.10F
WRAY           FAIR      91  55  29 SE10      30.07F
STERLING       NOT AVBL
HOLYOKE        NOT AVBL
FORT MORGAN    NOT AVBL
$$

COZ086-089-092>099-272300-
...SOUTHEAST COLORADO...

CITY           SKY/WX    TMP DP  RH WIND       PRES   REMARKS
PUEBLO         FAIR      96  49  20 SE16      30.07F
LA JUNTA       FAIR      93  52  24 SE7       30.06F
LAMAR          FAIR      94  66  39 NE7       30.01F
SPRINGFIELD      N/A     91  53  27 E9        30.05F
$$




USA.gov is the U.S. government's official web portal to all federal, state and local government web resources and services.